QPF
0.00 0.00 0.00 0.00 0.00 0.00 0.00 0.00 0.00 0.00 0.00 0.00 0.00 0.00 0.00 0.00 0.00 0.00 0.00 0.00 0.00 0.00 0.00 0.00 0.00 0.01 0.01 0.00 0.01 0.00 0.00 0.00 0.00 0.00 0.00 0.00 0.00 0.01 0.01 0.01 0.01 0.01 0.01
0.00 0.00 0.00 0.00 0.00 0.00 0.00 0.00 0.00 0.00 0.00 0.00 0.00 0.00 0.00 0.00 0.00 0.00 0.00 0.00 0.00 0.00 0.00 0.00 0.00 0.00 0.00 0.00 0.00 0.00 0.00 0.00 0.00 0.00 0.00 0.00 0.01 0.01 0.01 0.01 0.01 0.01 0.01
0.00 0.00 0.00 0.00 0.00 0.00 0.00 0.00 0.00 0.00 0.00 0.00 0.00 0.00 0.00 0.00 0.00 0.00 0.00 0.00 0.00 0.00 0.00 0.00 0.00 0.00 0.00 0.00 0.00 0.00 0.00 0.00 0.00 0.00 0.00 0.00 0.00 0.01 0.01 0.00 0.01 0.01 0.01
0.00 0.00 0.00 0.00 0.00 0.00 0.00 0.00 0.00 0.00 0.00 0.00 0.00 0.00 0.00 0.00 0.00 0.00 0.00 0.00 0.00 0.00 0.00 0.00 0.00 0.00 0.00 0.00 0.00 0.00 0.00 0.00 0.00 0.00 0.01 0.00 0.00 0.01 0.01 0.01 0.01 0.01 0.01
0.00 0.00 0.00 0.00 0.00 0.00 0.00 0.00 0.00 0.00 0.00 0.00 0.00 0.00 0.00 0.00 0.00 0.00 0.00 0.00 0.00 0.00 0.00 0.00 0.00 0.00 0.00 0.00 0.00 0.00 0.00 0.00 0.00 0.00 0.00 0.00 0.01 0.01 0.01 0.01 0.01 0.01 0.01
0.00 0.00 0.00 0.00 0.00 0.00 0.00 0.00 0.00 0.00 0.00 0.00 0.00 0.00 0.00 0.00 0.00 0.00 0.00 0.00 0.00 0.00 0.00 0.00 0.00 0.00 0.00 0.00 0.00 0.00 0.00 0.00 0.00 0.00 0.00 0.00 0.00 0.01 0.01 0.01 0.01 0.01 0.01
0.00 0.00 0.00 0.00 0.00 0.00 0.00 0.00 0.00 0.00 0.00 0.00 0.00 0.00 0.00 0.00 0.00 0.00 0.00 0.00 0.00 0.00 0.00 0.01 0.01 0.01 0.00 0.00 0.00 0.00 0.00 0.00 0.00 0.00 0.00 0.00 0.00 0.01 0.01 0.02 0.02 0.02 0.01
0.00 0.00 0.00 0.00 0.00 0.00 0.00 0.00 0.00 0.00 0.00 0.00 0.00 0.00 0.00 0.00 0.00 0.00 0.00 0.00 0.00 0.00 0.00 0.00 0.00 0.00 0.00 0.00 0.00 0.00 0.00 0.00 0.00 0.00 0.00 0.00 0.00 0.00 0.02 0.04 0.04 0.04 0.03
0.00 0.00 0.00 0.00 0.00 0.00 0.00 0.00 0.00 0.00 0.00 0.00 0.00 0.00 0.00 0.00 0.00 0.00 0.00 0.00 0.00 0.00 0.00 0.00 0.00 0.00 0.00 0.00 0.00 0.00 0.00 0.00 0.00 0.00 0.00 0.00 0.00 0.01 0.03 0.06 0.07 0.05 0.04
0.00 0.00 0.00 0.00 0.00 0.00 0.00 0.00 0.00 0.00 0.00 0.00 0.00 0.00 0.00 0.00 0.00 0.01 0.01 0.00 0.00 0.01 0.01 0.01 0.01 0.01 0.01 0.01 0.00 0.00 0.00 0.01 0.00 0.00 0.00 0.00 0.00 0.01 0.03 0.07 0.09 0.08 0.06
0.00 0.00 0.00 0.00 0.00 0.00 0.00 0.00 0.00 0.00 0.01 0.00 0.00 0.01 0.01 0.01 0.01 0.01 0.01 0.01 0.01 0.03 0.03 0.03 0.03 0.03 0.03 0.02 0.02 0.02 0.02 0.01 0.01 0.01 0.01 0.00 0.00 0.00 0.01 0.05 0.08 0.09 0.08
0.00 0.00 0.00 0.01 0.01 0.01 0.01 0.01 0.01 0.01 0.01 0.01 0.01 0.01 0.02 0.02 0.01 0.01 0.01 0.02 0.03 0.04 0.05 0.06 0.07 0.07 0.06 0.05 0.08 0.06 0.03 0.03 0.02 0.01 0.02 0.01 0.01 0.01 0.02 0.04 0.08 0.09 0.09
0.00 0.00 0.00 0.01 0.01 0.01 0.02 0.01 0.02 0.02 0.02 0.02 0.02 0.02 0.03 0.03 0.03 0.02 0.03 0.03 0.04 0.05 0.08 0.10 0.12 0.11 0.12 0.11 0.14 0.11 0.06 0.06 0.04 0.04 0.04 0.03 0.02 0.03 0.03 0.04 0.06 0.07 0.09
0.00 0.00 0.00 0.01 0.01 0.01 0.01 0.02 0.02 0.02 0.03 0.03 0.04 0.06 0.08 0.11 0.08 0.05 0.05 0.04 0.05 0.07 0.09 0.13 0.16 0.16 0.15 0.14 0.15 0.11 0.08 0.08 0.07 0.07 0.06 0.04 0.04 0.04 0.05 0.05 0.06 0.07 0.08
0.01 0.02 0.01 0.01 0.01 0.01 0.02 0.02 0.02 0.02 0.03 0.04 0.05 0.07 0.09 0.12 0.10 0.07 0.07 0.07 0.06 0.07 0.09 0.13 0.16 0.17 0.16 0.16 0.14 0.11 0.10 0.10 0.09 0.08 0.07 0.06 0.05 0.05 0.06 0.07 0.09 0.08 0.09
0.03 0.04 0.04 0.03 0.03 0.03 0.03 0.03 0.03 0.04 0.05 0.06 0.07 0.09 0.11 0.11 0.11 0.10 0.09 0.07 0.07 0.09 0.11 0.13 0.12 0.14 0.14 0.16 0.11 0.10 0.10 0.09 0.08 0.08 0.08 0.07 0.05 0.05 0.06 0.08 0.10 0.12 0.11
0.06 0.07 0.07 0.07 0.09 0.09 0.08 0.10 0.10 0.10 0.13 0.15 0.16 0.16 0.16 0.13 0.11 0.11 0.10 0.09 0.09 0.10 0.11 0.11 0.11 0.12 0.11 0.10 0.08 0.09 0.09 0.07 0.06 0.07 0.07 0.06 0.04 0.04 0.05 0.06 0.09 0.10 0.11
0.08 0.09 0.09 0.10 0.13 0.12 0.13 0.14 0.12 0.17 0.23 0.24 0.25 0.24 0.21 0.18 0.17 0.17 0.15 0.13 0.12 0.11 0.12 0.11 0.12 0.15 0.13 0.11 0.09 0.07 0.06 0.06 0.04 0.06 0.06 0.05 0.04 0.04 0.05 0.05 0.06 0.08 0.09
0.10 0.09 0.08 0.09 0.12 0.13 0.14 0.14 0.15 0.20 0.24 0.26 0.25 0.25 0.24 0.24 0.28 0.29 0.25 0.20 0.17 0.16 0.14 0.11 0.11 0.13 0.12 0.09 0.07 0.05 0.04 0.03 0.03 0.02 0.02 0.02 0.03 0.03 0.04 0.04 0.03 0.04 0.04
0.08 0.08 0.07 0.08 0.11 0.15 0.20 0.22 0.22 0.23 0.21 0.22 0.24 0.27 0.29 0.35 0.39 0.40 0.36 0.28 0.21 0.16 0.13 0.13 0.14 0.12 0.09 0.07 0.05 0.04 0.04 0.04 0.02 0.02 0.01 0.01 0.02 0.02 0.02 0.02 0.03 0.03 0.03
0.06 0.06 0.07 0.09 0.13 0.20 0.28 0.33 0.33 0.32 0.31 0.27 0.27 0.32 0.33 0.32 0.34 0.35 0.33 0.28 0.21 0.15 0.13 0.12 0.12 0.11 0.08 0.07 0.05 0.04 0.03 0.02 0.02 0.01 0.01 0.01 0.01 0.01 0.01 0.01 0.02 0.02 0.02
0.04 0.05 0.07 0.08 0.11 0.19 0.28 0.32 0.34 0.32 0.28 0.25 0.21 0.24 0.25 0.27 0.26 0.23 0.20 0.16 0.14 0.12 0.12 0.11 0.10 0.09 0.07 0.06 0.06 0.06 0.05 0.03 0.01 0.00 0.00 0.00 0.00 0.01 0.01 0.01 0.01 0.02 0.02
0.03 0.04 0.05 0.07 0.08 0.12 0.19 0.22 0.28 0.28 0.21 0.16 0.14 0.16 0.20 0.21 0.18 0.15 0.14 0.11 0.10 0.09 0.10 0.10 0.10 0.09 0.07 0.06 0.05 0.05 0.04 0.03 0.01 0.01 0.01 0.00 0.00 0.01 0.01 0.01 0.01 0.01 0.01
0.02 0.04 0.04 0.06 0.07 0.09 0.09 0.10 0.11 0.10 0.10 0.09 0.08 0.11 0.13 0.14 0.12 0.11 0.11 0.10 0.10 0.09 0.08 0.07 0.08 0.08 0.08 0.05 0.04 0.03 0.03 0.02 0.02 0.01 0.01 0.00 0.00 0.00 0.00 0.00 0.00 0.01 0.00
0.01 0.02 0.03 0.05 0.06 0.05 0.04 0.03 0.04 0.04 0.06 0.08 0.11 0.12 0.12 0.10 0.08 0.09 0.09 0.09 0.10 0.08 0.07 0.06 0.06 0.07 0.06 0.06 0.05 0.03 0.02 0.02 0.02 0.01 0.01 0.00 0.00 0.00 0.00 0.00 0.00 0.00 0.00
0.00 0.01 0.01 0.01 0.01 0.01 0.01 0.01 0.01 0.02 0.03 0.03 0.04 0.05 0.04 0.04 0.05 0.06 0.06 0.07 0.08 0.08 0.09 0.09 0.08 0.07 0.06 0.06 0.05 0.05 0.04 0.03 0.01 0.01 0.01 0.01 0.01 0.00 0.00 0.00 0.00 0.00 0.00
MSLP
1008.81 1009.03 1009.44 1010.01 1010.62 1011.17 1011.60 1011.86 1011.96 1011.95 1011.91 1011.93 1012.06 1012.34 1012.75 1013.24 1013.76 1014.22 1014.58 1014.81 1014.93 1014.97 1014.99 1015.02 1015.09 1015.22 1015.39 1015.57 1015.73 1015.85 1015.94 1015.99 1016.05 1016.12 1016.23 1016.39 1016.57 1016.77 1016.96 1017.12 1017.24 1017.33 1017.41
1008.48 1008.77 1009.27 1009.90 1010.57 1011.19 1011.65 1011.93 1012.04 1012.02 1011.98 1011.98 1012.11 1012.39 1012.81 1013.30 1013.81 1014.27 1014.61 1014.83 1014.94 1014.99 1015.03 1015.09 1015.21 1015.39 1015.59 1015.80 1015.96 1016.08 1016.14 1016.17 1016.19 1016.25 1016.36 1016.53 1016.75 1016.98 1017.21 1017.39 1017.53 1017.63 1017.70
1008.12 1008.48 1009.04 1009.74 1010.48 1011.15 1011.67 1011.99 1012.14 1012.16 1012.13 1012.15 1012.29 1012.56 1012.95 1013.42 1013.88 1014.29 1014.59 1014.78 1014.88 1014.95 1015.02 1015.14 1015.33 1015.56 1015.82 1016.05 1016.22 1016.31 1016.33 1016.31 1016.29 1016.32 1016.42 1016.60 1016.84 1017.12 1017.38 1017.61 1017.78 1017.89 1017.97
1007.81 1008.22 1008.83 1009.59 1010.38 1011.11 1011.68 1012.07 1012.27 1012.35 1012.37 1012.42 1012.56 1012.82 1013.18 1013.58 1013.98 1014.32 1014.56 1014.71 1014.80 1014.89 1015.01 1015.20 1015.46 1015.77 1016.07 1016.32 1016.49 1016.55 1016.52 1016.44 1016.37 1016.36 1016.44 1016.62 1016.89 1017.20 1017.51 1017.78 1017.99 1018.14 1018.23
1007.63 1008.08 1008.73 1009.51 1010.34 1011.10 1011.72 1012.16 1012.43 1012.56 1012.64 1012.73 1012.89 1013.13 1013.45 1013.79 1014.11 1014.37 1014.55 1014.66 1014.74 1014.85 1015.02 1015.28 1015.61 1015.98 1016.33 1016.60 1016.75 1016.77 1016.69 1016.56 1016.43 1016.38 1016.45 1016.63 1016.91 1017.26 1017.61 1017.92 1018.17 1018.35 1018.48
1007.61 1008.09 1008.76 1009.55 1010.38 1011.15 1011.80 1012.27 1012.58 1012.77 1012.90 1013.03 1013.21 1013.44 1013.72 1014.01 1014.26 1014.45 1014.56 1014.64 1014.72 1014.84 1015.06 1015.37 1015.76 1016.18 1016.55 1016.83 1016.96 1016.95 1016.82 1016.64 1016.48 1016.40 1016.44 1016.63 1016.92 1017.29 1017.67 1018.02 1018.31 1018.52 1018.68
1007.75 1008.25 1008.91 1009.69 1010.49 1011.25 1011.88 1012.36 1012.70 1012.92 1013.09 1013.26 1013.45 1013.69 1013.94 1014.19 1014.39 1014.52 1014.60 1014.65 1014.72 1014.87 1015.11 1015.46 1015.88 1016.32 1016.70 1016.97 1017.07 1017.03 1016.87 1016.66 1016.47 1016.37 1016.41 1016.60 1016.90 1017.28 1017.68 1018.05 1018.36 1018.60 1018.79
1008.00 1008.50 1009.15 1009.89 1010.65 1011.35 1011.94 1012.40 1012.73 1012.97 1013.16 1013.36 1013.57 1013.81 1014.06 1014.28 1014.46 1014.57 1014.62 1014.66 1014.74 1014.89 1015.14 1015.50 1015.92 1016.35 1016.71 1016.95 1017.03 1016.96 1016.78 1016.56 1016.36 1016.27 1016.32 1016.51 1016.82 1017.21 1017.60 1017.98 1018.29 1018.55 1018.75
1008.26 1008.78 1009.40 1010.09 1010.78 1011.42 1011.95 1012.36 1012.66 1012.89 1013.10 1013.30 1013.53 1013.79 1014.04 1014.27 1014.44 1014.54 1014.60 1014.64 1014.72 1014.87 1015.11 1015.45 1015.84 1016.23 1016.54 1016.74 1016.79 1016.70 1016.51 1016.30 1016.13 1016.06 1016.14 1016.34 1016.66 1017.04 1017.43 1017.79 1018.09 1018.34 1018.56
1008.48 1009.00 1009.60 1010.23 1010.86 1011.41 1011.87 1012.22 1012.49 1012.70 1012.89 1013.10 1013.35 1013.62 1013.89 1014.13 1014.31 1014.43 1014.50 1014.55 1014.63 1014.77 1014.98 1015.27 1015.61 1015.93 1016.18 1016.33 1016.34 1016.24 1016.07 1015.88 1015.75 1015.73 1015.84 1016.07 1016.40 1016.77 1017.15 1017.49 1017.77 1018.02 1018.23
1008.60 1009.12 1009.70 1010.29 1010.84 1011.33 1011.71 1012.01 1012.23 1012.41 1012.59 1012.80 1013.05 1013.33 1013.61 1013.87 1014.07 1014.21 1014.30 1014.37 1014.44 1014.56 1014.74 1014.98 1015.24 1015.48 1015.66 1015.75 1015.73 1015.62 1015.47 1015.33 1015.25 1015.28 1015.44 1015.70 1016.04 1016.42 1016.78 1017.10 1017.37 1017.60 1017.81
1008.64 1009.16 1009.71 1010.25 1010.75 1011.18 1011.51 1011.75 1011.93 1012.09 1012.25 1012.45 1012.69 1012.97 1013.25 1013.52 1013.74 1013.90 1014.00 1014.08 1014.16 1014.26 1014.40 1014.57 1014.76 1014.93 1015.04 1015.07 1015.02 1014.91 1014.78 1014.69 1014.66 1014.75 1014.95 1015.25 1015.61 1015.99 1016.35 1016.66 1016.92 1017.14 1017.36
1008.62 1009.13 1009.66 1010.16 1010.62 1010.99 1011.28 1011.49 1011.64 1011.78 1011.92 1012.11 1012.33 1012.59 1012.86 1013.11 1013.33 1013.50 1013.61 1013.70 1013.77 1013.86 1013.97 1014.09 1014.22 1014.33 1014.38 1014.37 1014.30 1014.20 1014.09 1014.02 1014.05 1014.18 1014.42 1014.75 1015.13 1015.53 1015.89 1016.20 1016.46 1016.69 1016.91
1008.63 1009.11 1009.60 1010.07 1010.48 1010.82 1011.08 1011.27 1011.41 1011.53 1011.66 1011.81 1012.01 1012.23 1012.46 1012.68 1012.88 1013.03 1013.14 1013.23 1013.30 1013.38 1013.48 1013.58 1013.68 1013.75 1013.77 1013.74 1013.66 1013.55 1013.46 1013.41 1013.46 1013.62 1013.88 1014.23 1014.62 1015.03 1015.40 1015.73 1016.00 1016.24 1016.47
1008.73 1009.16 1009.60 1010.02 1010.39 1010.71 1010.95 1011.13 1011.26 1011.37 1011.48 1011.60 1011.74 1011.90 1012.07 1012.24 1012.38 1012.50 1012.59 1012.68 1012.76 1012.85 1012.95 1013.06 1013.16 1013.23 1013.25 1013.21 1013.13 1013.03 1012.94 1012.90 1012.95 1013.10 1013.36 1013.70 1014.09 1014.50 1014.89 1015.23 1015.53 1015.79 1016.03
1008.97 1009.33 1009.70 1010.06 1010.39 1010.67 1010.90 1011.07 1011.20 1011.30 1011.38 1011.46 1011.54 1011.62 1011.70 1011.78 1011.85 1011.92 1011.98 1012.05 1012.14 1012.26 1012.40 1012.54 1012.68 1012.78 1012.83 1012.82 1012.75 1012.66 1012.56 1012.50 1012.53 1012.64 1012.87 1013.18 1013.55 1013.94 1014.33 1014.69 1015.00 1015.29 1015.55
1009.38 1009.64 1009.92 1010.20 1010.47 1010.71 1010.92 1011.09 1011.21 1011.29 1011.34 1011.36 1011.36 1011.35 1011.34 1011.31 1011.29 1011.29 1011.31 1011.37 1011.47 1011.62 1011.81 1012.02 1012.22 1012.39 1012.49 1012.53 1012.49 1012.41 1012.31 1012.22 1012.20 1012.26 1012.42 1012.67 1012.99 1013.35 1013.72 1014.08 1014.41 1014.71 1014.99
1009.92 1010.07 1010.24 1010.44 1010.63 1010.83 1011.01 1011.15 1011.26 1011.32 1011.32 1011.28 1011.20 1011.09 1010.96 1010.83 1010.71 1010.63 1010.60 1010.64 1010.76 1010.95 1011.20 1011.49 1011.77 1012.02 1012.20 1012.30 1012.31 1012.25 1012.14 1012.03 1011.95 1011.94 1012.02 1012.19 1012.44 1012.75 1013.08 1013.42 1013.75 1014.05 1014.34
1010.54 1010.58 1010.64 1010.74 1010.86 1011.00 1011.14 1011.25 1011.33 1011.36 1011.32 1011.21 1011.04 1010.83 1010.59 1010.34 1010.13 1009.97 1009.89 1009.91 1010.04 1010.27 1010.59 1010.95 1011.32 1011.66 1011.92 1012.09 1012.16 1012.12 1012.02 1011.88 1011.76 1011.68 1011.67 1011.76 1011.93 1012.16 1012.45 1012.75 1013.05 1013.35 1013.64
1011.16 1011.10 1011.07 1011.08 1011.12 1011.20 1011.29 1011.36 1011.41 1011.39 1011.30 1011.13 1010.88 1010.57 1010.23 1009.90 1009.60 1009.37 1009.25 1009.25 1009.38 1009.64 1010.00 1010.42 1010.87 1011.28 1011.63 1011.87 1011.99 1012.00 1011.91 1011.77 1011.61 1011.48 1011.41 1011.41 1011.50 1011.66 1011.87 1012.13 1012.39 1012.67 1012.93
1011.73 1011.59 1011.48 1011.41 1011.38 1011.40 1011.44 1011.48 1011.48 1011.42 1011.28 1011.04 1010.73 1010.35 1009.94 1009.53 1009.17 1008.89 1008.74 1008.72 1008.85 1009.12 1009.50 1009.96 1010.45 1010.91 1011.31 1011.61 1011.78 1011.83 1011.78 1011.66 1011.49 1011.34 1011.22 1011.16 1011.18 1011.27 1011.42 1011.62 1011.84 1012.07 1012.31
1012.17 1011.98 1011.82 1011.69 1011.62 1011.59 1011.59 1011.58 1011.54 1011.44 1011.26 1010.98 1010.62 1010.19 1009.74 1009.29 1008.90 1008.60 1008.42 1008.39 1008.51 1008.77 1009.14 1009.60 1010.09 1010.57 1010.99 1011.32 1011.53 1011.63 1011.62 1011.53 1011.39 1011.24 1011.11 1011.02 1011.00 1011.04 1011.13 1011.27 1011.44 1011.63 1011.84
1012.45 1012.24 1012.06 1011.91 1011.81 1011.74 1011.71 1011.67 1011.59 1011.46 1011.24 1010.93 1010.55 1010.12 1009.65 1009.21 1008.82 1008.52 1008.34 1008.30 1008.40 1008.64 1008.98 1009.39 1009.84 1010.28 1010.68 1011.01 1011.24 1011.37 1011.40 1011.36 1011.27 1011.16 1011.05 1010.97 1010.94 1010.95 1011.00 1011.10 1011.22 1011.36 1011.53
1012.56 1012.36 1012.18 1012.03 1011.92 1011.84 1011.77 1011.70 1011.60 1011.44 1011.21 1010.90 1010.53 1010.11 1009.68 1009.27 1008.92 1008.65 1008.49 1008.46 1008.54 1008.73 1009.00 1009.34 1009.71 1010.08 1010.42 1010.70 1010.92 1011.06 1011.13 1011.15 1011.11 1011.06 1011.01 1010.96 1010.94 1010.95 1010.99 1011.05 1011.13 1011.24 1011.37
1012.53 1012.35 1012.19 1012.05 1011.94 1011.85 1011.77 1011.68 1011.55 1011.38 1011.15 1010.85 1010.50 1010.13 1009.76 1009.42 1009.13 1008.93 1008.81 1008.78 1008.85 1008.99 1009.19 1009.43 1009.69 1009.95 1010.20 1010.41 1010.59 1010.72 1010.81 1010.87 1010.90 1010.92 1010.93 1010.94 1010.95 1010.97 1011.01 1011.05 1011.11 1011.19 1011.28
1012.40 1012.25 1012.10 1011.97 1011.87 1011.77 1011.67 1011.56 1011.42 1011.24 1011.01 1010.74 1010.44 1010.13 1009.84 1009.59 1009.39 1009.25 1009.19 1009.19 1009.25 1009.34 1009.47 1009.60 1009.75 1009.89 1010.02 1010.14 1010.26 1010.36 1010.46 1010.55 1010.63 1010.71 1010.78 1010.84 1010.90 1010.95 1010.99 1011.03 1011.07 1011.13 1011.20
Thickness
5851 5846 5829 5824 5820 5817 5814 5812 5809 5807 5803 5799 5796 5792 5789 5786 5783 5780 5778 5775 5773 5772 5770 5769 5767 5765 5764 5762 5761 5759 5757 5756 5754 5753 5752 5751 5749 5748 5747 5747 5747 5747 5743
5855 5844 5829 5824 5819 5816 5813 5810 5807 5804 5801 5798 5795 5791 5788 5785 5782 5779 5777 5775 5772 5771 5769 5767 5766 5764 5763 5761 5759 5758 5756 5755 5753 5752 5751 5750 5748 5747 5746 5746 5747 5746 5742
5852 5842 5828 5823 5818 5814 5811 5808 5806 5803 5799 5796 5793 5790 5787 5784 5781 5778 5776 5773 5771 5770 5768 5766 5764 5763 5761 5760 5758 5756 5755 5753 5752 5751 5752 5754 5749 5746 5745 5744 5744 5742 5741
5850 5840 5830 5821 5816 5813 5809 5806 5803 5800 5797 5794 5791 5788 5784 5781 5779 5776 5774 5772 5770 5768 5766 5764 5763 5761 5759 5758 5756 5755 5753 5752 5751 5752 5756 5756 5752 5745 5744 5743 5742 5741 5740
5846 5838 5828 5819 5814 5810 5807 5804 5801 5798 5794 5791 5788 5785 5782 5779 5777 5774 5772 5770 5768 5766 5764 5762 5761 5759 5757 5756 5754 5753 5752 5751 5750 5752 5756 5754 5752 5745 5743 5742 5740 5739 5739
5842 5836 5825 5816 5811 5807 5804 5801 5798 5794 5791 5788 5785 5782 5780 5777 5775 5773 5770 5768 5766 5764 5762 5760 5759 5757 5755 5754 5752 5751 5750 5749 5750 5756 5754 5753 5752 5745 5743 5741 5740 5739 5738
5840 5835 5823 5813 5808 5804 5800 5797 5794 5791 5788 5785 5782 5779 5777 5775 5772 5770 5768 5766 5764 5762 5760 5758 5757 5755 5753 5751 5750 5749 5748 5748 5751 5756 5753 5752 5749 5744 5742 5741 5740 5738 5737
5839 5832 5821 5810 5805 5800 5797 5794 5790 5787 5784 5781 5779 5776 5774 5772 5770 5768 5766 5763 5761 5759 5757 5756 5754 5752 5751 5749 5748 5747 5746 5746 5750 5754 5752 5752 5747 5744 5742 5740 5739 5738 5737
5836 5829 5819 5810 5802 5797 5793 5790 5787 5784 5781 5778 5775 5773 5770 5768 5766 5764 5762 5760 5759 5757 5755 5753 5751 5750 5748 5747 5746 5745 5745 5745 5749 5754 5754 5752 5747 5743 5741 5740 5739 5738 5737
5830 5825 5818 5811 5804 5798 5792 5786 5783 5780 5777 5774 5771 5769 5766 5764 5763 5761 5759 5757 5756 5754 5752 5750 5749 5748 5747 5745 5744 5743 5743 5742 5747 5754 5753 5752 5747 5743 5742 5741 5740 5738 5737
5821 5819 5816 5810 5802 5797 5794 5787 5781 5776 5773 5770 5768 5765 5763 5764 5764 5761 5759 5756 5753 5751 5750 5748 5747 5746 5745 5744 5743 5742 5741 5746 5751 5754 5754 5751 5747 5743 5742 5741 5740 5739 5738
5814 5812 5810 5806 5800 5795 5792 5786 5781 5778 5774 5769 5769 5765 5763 5763 5762 5761 5759 5754 5751 5749 5748 5747 5746 5745 5744 5747 5746 5742 5745 5748 5751 5753 5752 5748 5745 5742 5741 5741 5740 5739 5738
5810 5807 5805 5800 5795 5793 5788 5784 5780 5776 5772 5768 5765 5761 5759 5759 5758 5757 5756 5754 5750 5748 5748 5748 5747 5747 5747 5748 5748 5747 5748 5751 5751 5752 5751 5747 5743 5742 5741 5740 5740 5739 5738
5806 5803 5801 5797 5791 5787 5784 5781 5776 5772 5768 5766 5762 5758 5757 5755 5754 5753 5752 5752 5751 5750 5749 5748 5747 5748 5747 5748 5747 5747 5748 5748 5750 5749 5748 5745 5742 5740 5740 5739 5739 5738 5738
5800 5797 5795 5792 5787 5781 5776 5773 5771 5767 5765 5760 5756 5754 5751 5751 5749 5748 5747 5746 5746 5747 5747 5746 5745 5745 5745 5745 5745 5747 5747 5747 5746 5746 5747 5743 5741 5740 5739 5738 5738 5737 5737
5795 5792 5789 5785 5781 5775 5770 5767 5765 5762 5758 5755 5752 5748 5745 5744 5744 5742 5741 5741 5742 5742 5743 5743 5743 5742 5742 5743 5743 5745 5745 5745 5745 5744 5745 5744 5741 5740 5739 5738 5737 5737 5736
5789 5785 5779 5776 5773 5768 5764 5761 5760 5756 5752 5749 5747 5743 5740 5738 5737 5736 5735 5736 5738 5738 5738 5738 5739 5738 5738 5740 5741 5743 5743 5743 5744 5743 5743 5744 5744 5741 5740 5738 5737 5736 5736
5780 5775 5771 5770 5765 5760 5755 5751 5749 5747 5744 5742 5740 5737 5735 5732 5730 5730 5729 5731 5731 5731 5733 5734 5734 5734 5734 5735 5736 5739 5742 5742 5742 5742 5742 5742 5743 5745 5742 5739 5737 5736 5735
5769 5765 5761 5759 5755 5751 5746 5742 5740 5738 5736 5734 5732 5730 5728 5727 5725 5723 5724 5724 5724 5727 5727 5729 5731 5729 5728 5729 5731 5734 5737 5739 5741 5741 5742 5742 5741 5741 5742 5740 5738 5736 5736
5758 5755 5751 5748 5744 5741 5736 5732 5731 5730 5729 5726 5724 5722 5721 5720 5719 5719 5718 5719 5720 5721 5722 5723 5721 5721 5722 5724 5728 5731 5733 5736 5737 5739 5739 5741 5741 5741 5741 5742 5740 5738 5736
5746 5744 5741 5737 5732 5729 5726 5721 5720 5720 5719 5718 5716 5715 5715 5714 5714 5713 5714 5714 5715 5717 5718 5718 5716 5715 5717 5720 5720 5723 5729 5732 5733 5734 5736 5739 5741 5740 5739 5739 5739 5741 5739
5734 5731 5729 5726 5723 5719 5718 5715 5712 5710 5710 5709 5708 5708 5707 5708 5708 5709 5709 5710 5712 5712 5711 5711 5709 5710 5714 5715 5714 5716 5719 5723 5725 5732 5733 5733 5735 5737 5738 5737 5737 5736 5737
5724 5721 5719 5715 5712 5710 5709 5708 5705 5704 5702 5702 5702 5701 5700 5700 5702 5703 5704 5705 5706 5706 5706 5705 5705 5703 5706 5711 5713 5712 5712 5714 5721 5725 5726 5729 5729 5731 5734 5736 5734 5734 5734
5714 5712 5708 5706 5703 5701 5700 5699 5696 5694 5693 5692 5692 5693 5692 5693 5694 5694 5695 5697 5698 5700 5700 5700 5702 5702 5700 5703 5707 5708 5711 5713 5710 5715 5719 5723 5724 5724 5729 5732 5733 5733 5732
5707 5704 5700 5697 5694 5692 5690 5688 5686 5686 5686 5686 5684 5683 5682 5683 5684 5685 5686 5687 5688 5690 5692 5692 5694 5695 5698 5699 5701 5704 5704 5704 5705 5706 5710 5715 5719 5723 5725 5726 5728 5730 5731
5700 5697 5693 5688 5684 5683 5681 5679 5676 5675 5673 5672 5672 5672 5673 5674 5674 5674 5675 5676 5678 5680 5682 5683 5686 5688 5691 5693 5695 5699 5699 5700 5702 5704 5704 5707 5711 5717 5721 5723 5724 5726 5727